TimeEST,TemperatureF,Dew PointF,Humidity,Sea Level PressureIn,VisibilityMPH,Wind Direction,Wind SpeedMPH,Gust SpeedMPH,PrecipitationIn,Events,Conditions,WindDirDegrees,DateUTC
12:53 AM,17.1,14.0,88,30.28,4.0,Calm,Calm,-,N/A,,Clear,0,2013-01-08 05:53:00
1:53 AM,18.0,15.1,88,30.27,5.0,Calm,Calm,-,N/A,,Clear,0,2013-01-08 06:53:00
2:53 AM,16.0,12.0,84,30.30,5.0,Calm,Calm,-,N/A,,Clear,0,2013-01-08 07:53:00
3:53 AM,17.1,14.0,88,30.30,5.0,Calm,Calm,-,N/A,,Clear,0,2013-01-08 08:53:00
4:53 AM,17.1,12.9,84,30.30,7.0,Calm,Calm,-,N/A,,Clear,0,2013-01-08 09:53:00
5:53 AM,16.0,12.9,88,30.31,5.0,Calm,Calm,-,N/A,,Clear,0,2013-01-08 10:53:00
6:53 AM,18.0,15.1,88,30.32,6.0,Calm,Calm,-,N/A,,Clear,0,2013-01-08 11:53:00
7:53 AM,21.0,18.0,88,30.33,4.0,East,4.6,-,N/A,,Clear,90,2013-01-08 12:53:00
10:53 AM,41.0,28.0,60,30.35,9.0,Variable,4.6,-,N/A,,Clear,0,2013-01-08 15:53:00
11:53 AM,39.0,28.9,67,30.34,8.0,Calm,Calm,-,N/A,,Clear,0,2013-01-08 16:53:00
12:53 PM,45.0,30.0,56,30.31,10.0,Calm,Calm,-,N/A,,Clear,0,2013-01-08 17:53:00
1:53 PM,50.0,30.9,48,30.28,10.0,SSW,5.8,-,N/A,,Clear,210,2013-01-08 18:53:00
2:53 PM,50.0,30.9,48,30.29,10.0,SSW,8.1,-,N/A,,Clear,210,2013-01-08 19:53:00
3:53 PM,51.1,30.9,46,30.28,10.0,SW,5.8,-,N/A,,Clear,230,2013-01-08 20:53:00
4:53 PM,48.9,30.9,50,30.28,10.0,South,3.5,-,N/A,,Clear,180,2013-01-08 21:53:00
5:53 PM,39.0,30.9,73,30.29,10.0,Calm,Calm,-,N/A,,Clear,0,2013-01-08 22:53:00
6:53 PM,34.0,28.0,79,30.31,10.0,Calm,Calm,-,N/A,,Clear,0,2013-01-08 23:53:00
7:53 PM,30.0,26.1,85,30.30,10.0,Calm,Calm,-,N/A,,Clear,0,2013-01-09 00:53:00
8:53 PM,28.0,25.0,88,30.29,9.0,East,3.5,-,N/A,,Clear,100,2013-01-09 01:53:00
9:53 PM,27.0,24.1,89,30.27,9.0,Calm,Calm,-,N/A,,Clear,0,2013-01-09 02:53:00
10:53 PM,30.0,26.1,85,30.25,10.0,East,4.6,-,N/A,,Clear,90,2013-01-09 03:53:00
11:53 PM,28.9,27.0,92,30.27,8.0,Calm,Calm,-,N/A,,Clear,0,2013-01-09 04:53:00